, AK

(GMT )
Anchorage

Weather History for PANC - August, 2014

Change the Weather History Date:

Saturday, August 9, 2014

  Actual Average Record
Temperature  
Mean Temperature 58 °F 58 °F  
Max Temperature 61 °F 65 °F 80 °F (2003)
Min Temperature 54 °F 52 °F 41 °F (1955)
Degree Days  
Heating Degree Days 7    
Month to date heating degree days 43  
Since 1 June heating degree days 525  
Since 1 July heating degree days 197  
Cooling Degree Days 0    
Month to date cooling degree days 0  
Year to date cooling degree days 3  
Since 1 June cooling degree days 3  
Growing Degree Days 10 (Base 50)    
Moisture  
Dew Point 51 °F    
Average Humidity 83    
Maximum Humidity 89    
Minimum Humidity 77    
Precipitation  
Precipitation 0.02 in 0.09 in 0.62 in (2013)
Month to date precipitation 0.23 0.79  
Year to date precipitation 10.02 6.83  
Snow  
Snow 0.00 in 0.00 in 0.00 in ()
Month to date snowfall 0.0 0.0  
Since 1 June snowfall 0.0 0.0  
Since 1 July snowfall 0.0 0.0  
Snow Depth 0.00 in    
Sea Level Pressure  
Sea Level Pressure 29.60 in    
Wind  
Wind Speed 2 mph (SSW)    
Max Wind Speed 8 mph    
Max Gust Speed -    
Visibility 10 miles    
Events Rain    
T = Trace of Precipitation, MM = Missing Value Source: NWS Daily Summary

Daily Weather History Graph

Daily Weather History Graph

Search for Another Location

Airport or City:

Trip Planner

Search our weather history database for the weather conditions in past years. The results will help you decide how hot, cold, wet, or windy it might be!

Date:

Astronomy

Aug. 09, 2014 Rise Set
Actual Time 5:53 AM AKDT 10:15 PM AKDT
Civil Twilight 4:55 AM AKDT 11:13 PM AKDT
Nautical Twilight 3:08 AM AKDT 12:54 AM AKDT
Astronomical Twilight Sun does not rise Sun does not rise
Moon 9:11 PM AKDT (8/9) 4:47 AM AKDT (8/9)
Length of Visible Light 18h 18m
Length of Day
16h 21m
Waxing Gibbous, 99% of the Moon is Illuminated
Aug 9
Waxing Gibbous
Aug 10
Full
Aug 17
Last Quarter
Aug 25
New
Sep 2
First Quarter

Hourly Weather History & Observations

Time (AKDT) Temp. Dew Point Humidity Pressure Visibility Wind Dir Wind Speed Gust Speed Precip Events Conditions
12:53 AM 55.9 °F 50.0 °F 80% 29.59 in 10.0 mi Calm Calm - N/A   Overcast
1:53 AM 55.9 °F 48.9 °F 77% 29.60 in 10.0 mi Calm Calm - N/A   Overcast
2:53 AM 55.9 °F 48.0 °F 75% 29.59 in 10.0 mi Calm Calm - N/A   Overcast
3:53 AM 54.0 °F 48.9 °F 83% 29.58 in 10.0 mi South 3.5 mph - N/A   Overcast
4:53 AM 55.0 °F 48.0 °F 77% 29.59 in 10.0 mi Calm Calm - N/A   Overcast
5:53 AM 54.0 °F 48.9 °F 83% 29.58 in 10.0 mi Calm Calm - N/A   Overcast
6:53 AM 54.0 °F 50.0 °F 86% 29.58 in 10.0 mi Calm Calm - N/A   Overcast
7:53 AM 55.0 °F 50.0 °F 83% 29.57 in 10.0 mi Calm Calm - N/A   Overcast
8:53 AM 55.0 °F 50.0 °F 83% 29.58 in 10.0 mi Calm Calm - 0.00 in Rain Light Rain
9:53 AM 55.9 °F 48.9 °F 77% 29.58 in 10.0 mi Calm Calm - 0.00 in Rain Light Rain
10:53 AM 57.0 °F 50.0 °F 77% 29.59 in 10.0 mi NW 4.6 mph - 0.02 in Rain Light Rain
11:53 AM 57.9 °F 50.0 °F 75% 29.60 in 10.0 mi NW 3.5 mph - 0.00 in Rain Light Rain
12:53 PM 60.1 °F 53.1 °F 78% 29.60 in 10.0 mi NW 9.2 mph - 0.00 in   Overcast
1:53 PM 61.0 °F 54.0 °F 78% 29.62 in 10.0 mi West 8.1 mph - N/A   Overcast
2:53 PM 63.0 °F 54.0 °F 72% 29.62 in 10.0 mi West 5.8 mph - N/A   Overcast
3:53 PM 64.0 °F 53.1 °F 67% 29.61 in 10.0 mi West 5.8 mph - N/A   Overcast
4:53 PM 66.0 °F 48.9 °F 54% 29.61 in 10.0 mi SW 8.1 mph - N/A   Mostly Cloudy
5:53 PM 64.9 °F 52.0 °F 63% 29.60 in 10.0 mi South 6.9 mph - N/A   Mostly Cloudy
6:53 PM 64.0 °F 51.1 °F 63% 29.60 in 10.0 mi SSE 9.2 mph - N/A   Overcast
7:53 PM 62.6 °F 51.8 °F 68% 29.59 in 10.0 mi SSE 10.4 mph - N/A   Mostly Cloudy
8:53 PM 63.0 °F 51.1 °F 65% 29.60 in 10.0 mi SSE 8.1 mph - N/A   Overcast
9:53 PM 62.1 °F 50.0 °F 65% 29.61 in 10.0 mi South 5.8 mph - N/A   Overcast
10:53 PM 60.1 °F 52.0 °F 75% 29.62 in 10.0 mi SE 3.5 mph - 0.00 in Rain Light Rain
11:53 PM 57.9 °F 53.1 °F 84% 29.62 in 10.0 mi SSE 5.8 mph - 0.00 in Rain Light Rain